This is the latest recevied weather packets stored in our database for station/object LY3FF-10. If no packets are shown the sender has not sent any weather packets the latest 10 day(s).
| Time | Temp. | Humidity | Pressure | Rain* | Wind** | Luminosity | Snow |
|---|---|---|---|---|---|---|---|
| 1788256820 | 24.44° C | 75% | 990.1 hPa | - | - | - | - |
| 1788256005 | 20.56° C | 78% | 990 hPa | - | - | - | - |
| 1788255270 | 19.44° C | 79% | 990.1 hPa | - | - | - | - |
| 1788254380 | 19.44° C | 80% | 990.2 hPa | - | - | - | - |
| 1788253624 | 20° C | 81% | 990.1 hPa | - | - | - | - |
| 1788252734 | 18.89° C | 82% | 990.2 hPa | - | - | - | - |
| 1788251875 | 18.33° C | 83% | 990.2 hPa | - | - | - | - |
| 1788250999 | 17.78° C | 83% | 990.3 hPa | - | - | - | - |
| 1788250150 | 18.33° C | 83% | 990.3 hPa | - | - | - | - |
| 1788249367 | 18.33° C | 82% | 990.3 hPa | - | - | - | - |
| 1788248620 | 18.33° C | 82% | 990.4 hPa | - | - | - | - |
| 1788247841 | 18.33° C | 82% | 990.3 hPa | - | - | - | - |
| 1788247035 | 18.33° C | 82% | 990.4 hPa | - | - | - | - |
| 1788246315 | 18.33° C | 82% | 990.5 hPa | - | - | - | - |
| 1788245444 | 18.33° C | 82% | 990.4 hPa | - | - | - | - |
| 1788244600 | 18.33° C | 82% | 990.3 hPa | - | - | - | - |
| 1788243700 | 18.33° C | 82% | 990.4 hPa | - | - | - | - |
| 1788242905 | 18.33° C | 82% | 990.3 hPa | - | - | - | - |
| 1788242104 | 18.33° C | 82% | 990.5 hPa | - | - | - | - |
| 1788241215 | 18.33° C | 82% | 990.2 hPa | - | - | - | - |
| 1788240484 | 17.78° C | 82% | 990.1 hPa | - | - | - | - |
| 1788239734 | 17.78° C | 82% | 990.2 hPa | - | - | - | - |
| 1788239004 | 17.78° C | 83% | 990.2 hPa | - | - | - | - |
| 1788238267 | 17.78° C | 83% | 990.3 hPa | - | - | - | - |
| 1788237450 | 17.22° C | 83% | 990.6 hPa | - | - | - | - |
* Rain since midnight (hover to see other rain measurements)
** Current wind speed in m/s (hover to see current wind gust speed)